星链-1490 (STARLINK-1490 )

导读 | 豆包AI

STARLINK-1490是美国SpaceX公司星链星座中的一颗低轨通信卫星,于2020年6月13日由猎鹰9号火箭发射入轨。它属于星链V1.0批次卫星,运行在约550公里近地轨道,配备Ku/Ka波段通信载荷与氪霍尔推进器,具备自主避撞能力,旨在为全球提供高速低延迟卫星宽带互联网服务,是星链全球组网的重要组成部分。

基本信息
目录编号:
45777
目录名称:
STARLINK-1490
国际标识:
2020-038AZ
轨道中心:
EARTH
卫星名称:
星链-1490
卫星全名:
星链-1490 (STARLINK-1490 )
卫星状态:
已陨落 最后检测时间 2025-01-28
发射日期:
2020-06-13 UTC
国别 :
美国 (US)
星等 :
--
轨道信息
数据来源 国际轨道数据
星历时间: 2025-01-28T21:15:27+0800
轨道信息已过期430天
半长轴: 6530.974km
偏心率: 0.0003898
轨道倾角: 52.993°
近地点辐角 177.427°
升交点赤经 92.824°
平近点角 249.525°
近地点: 150.293km
远地点: 155.385km
周期: 87.544分钟
每日圈数: 16.448863
详细信息
固有亮度:
5
最大亮度:
2.5
卫星平台:
Starlink V1.0
覆盖范围:
全球
运营商:
太空探索技术公司
运营商所在国:
美国
制造商(研发单位):
太空探索技术公司
制造商所在国:
美国
使用方式:
暂无
卫星简介
星链(Starlink)计划是由太空探索技术公司(SpaceX)提出的一个巨型低轨卫星互联网星座项目,计划在2019年至2024年间在太空搭建由约1.2万颗卫星组成的“星链”网络,其中1584颗将部署在地球上空550千米处的近地轨道,并从2020年开始工作。该卫星仍在工作。